Time,TemperatureF,DewpointF,PressureIn,WindDirection,WindDirectionDegrees,WindSpeedMPH,WindSpeedGustMPH,Humidity,HourlyPrecipIn,Conditions,Clouds,dailyrainin,SoftwareType,DateUTC
2013-02-20 00:01:00,21.0,5.0,30.30,WNW,300,9.0,-999.0,48,-99.99,,,-99.99,,2013-02-20 06:01:00,
2013-02-20 00:11:00,21.0,5.0,30.30,WNW,300,9.0,-999.0,48,-99.99,,,-99.99,,2013-02-20 06:11:00,
2013-02-20 00:21:00,21.0,5.0,30.30,WNW,300,9.0,-999.0,48,-99.99,,,-99.99,,2013-02-20 06:21:00,
2013-02-20 00:31:00,19.0,5.0,30.32,NW,310,9.0,-999.0,52,-99.99,,,-99.99,,2013-02-20 06:31:00,
2013-02-20 00:42:00,21.0,5.0,30.32,WNW,300,9.0,-999.0,48,-99.99,,,-99.99,,2013-02-20 06:42:00,
2013-02-20 00:52:00,19.0,5.0,30.32,NW,310,7.0,-999.0,52,-99.99,,,-99.99,,2013-02-20 06:52:00,
2013-02-20 01:01:00,19.0,5.0,30.32,NW,310,7.0,-999.0,52,-99.99,,,-99.99,,2013-02-20 07:01:00,
2013-02-20 01:11:00,19.0,5.0,30.32,NW,310,7.0,-999.0,52,-99.99,,,-99.99,,2013-02-20 07:11:00,
2013-02-20 01:21:00,19.0,7.0,30.32,WNW,300,12.0,-999.0,57,-99.99,,,-99.99,,2013-02-20 07:21:00,
2013-02-20 01:31:00,19.0,7.0,30.32,WNW,300,12.0,-999.0,57,-99.99,,,-99.99,,2013-02-20 07:31:00,
2013-02-20 01:42:00,19.0,7.0,30.32,NNW,340,9.0,-999.0,57,-99.99,,,-99.99,,2013-02-20 07:42:00,
2013-02-20 01:52:00,19.0,5.0,30.32,NNW,330,9.0,-999.0,52,-99.99,,,-99.99,,2013-02-20 07:52:00,
2013-02-20 02:05:00,19.0,5.0,30.32,NNW,330,9.0,-999.0,52,-99.99,,,-99.99,,2013-02-20 08:05:00,
2013-02-20 02:11:00,19.0,5.0,30.32,NNW,330,9.0,-999.0,52,-99.99,,,-99.99,,2013-02-20 08:11:00,
2013-02-20 02:21:00,19.0,5.0,30.32,NNW,330,9.0,-999.0,52,-99.99,,,-99.99,,2013-02-20 08:21:00,
2013-02-20 02:31:00,19.0,5.0,30.33,NNW,330,10.0,-999.0,52,-99.99,,,-99.99,,2013-02-20 08:31:00,
2013-02-20 02:42:00,18.0,5.0,30.33,NW,320,12.0,-999.0,57,-99.99,,,-99.99,,2013-02-20 08:42:00,
2013-02-20 02:52:00,18.0,5.0,30.33,NNW,330,13.0,-999.0,57,-99.99,,,-99.99,,2013-02-20 08:52:00,
2013-02-20 03:01:00,18.0,5.0,30.33,NNW,330,9.0,-999.0,57,-99.99,,,-99.99,,2013-02-20 09:01:00,
2013-02-20 03:11:00,18.0,5.0,30.33,NNW,330,9.0,-999.0,57,-99.99,,,-99.99,,2013-02-20 09:11:00,
2013-02-20 03:21:00,18.0,5.0,30.33,NNW,330,9.0,-999.0,57,-99.99,,,-99.99,,2013-02-20 09:21:00,
2013-02-20 03:31:00,18.0,5.0,30.33,NNW,330,9.0,-999.0,57,-99.99,,,-99.99,,2013-02-20 09:31:00,
2013-02-20 03:41:00,16.0,5.0,30.32,NNW,340,10.0,-999.0,61,-99.99,,,-99.99,,2013-02-20 09:41:00,
2013-02-20 03:52:00,16.0,5.0,30.32,North,350,12.0,-999.0,61,-99.99,,,-99.99,,2013-02-20 09:52:00,
2013-02-20 04:01:00,16.0,5.0,30.32,North,350,9.0,-999.0,61,-99.99,,,-99.99,,2013-02-20 10:01:00,
2013-02-20 04:12:00,16.0,5.0,30.32,North,350,9.0,-999.0,61,-99.99,,,-99.99,,2013-02-20 10:12:00,
2013-02-20 04:21:00,16.0,5.0,30.31,North,350,8.0,-999.0,61,-99.99,,,-99.99,,2013-02-20 10:21:00,
2013-02-20 04:31:00,16.0,5.0,30.31,North,350,7.0,-999.0,61,-99.99,,,-99.99,,2013-02-20 10:31:00,
2013-02-20 04:41:00,14.0,5.0,30.31,North,350,7.0,-999.0,66,-99.99,,,-99.99,,2013-02-20 10:41:00,
2013-02-20 04:52:00,14.0,5.0,30.32,North,10,7.0,-999.0,66,-99.99,,,-99.99,,2013-02-20 10:52:00,
2013-02-20 05:02:00,14.0,5.0,30.33,North,360,7.0,-999.0,66,-99.99,,,-99.99,,2013-02-20 11:02:00,
2013-02-20 05:11:00,14.0,5.0,30.33,North,360,7.0,-999.0,66,-99.99,,,-99.99,,2013-02-20 11:11:00,
2013-02-20 05:21:00,14.0,5.0,30.33,NNW,340,8.0,-999.0,66,-99.99,,,-99.99,,2013-02-20 11:21:00,
2013-02-20 05:32:00,12.0,5.0,30.35,NNW,340,7.0,-999.0,72,-99.99,,,-99.99,,2013-02-20 11:32:00,
2013-02-20 05:41:00,12.0,5.0,30.35,North,360,6.0,-999.0,72,-99.99,,,-99.99,,2013-02-20 11:41:00,
2013-02-20 05:52:00,12.0,5.0,30.35,NNW,340,7.0,-999.0,72,-99.99,,,-99.99,,2013-02-20 11:52:00,
2013-02-20 06:01:00,12.0,3.0,30.36,North,350,6.0,-999.0,66,-99.99,,,-99.99,,2013-02-20 12:01:00,
2013-02-20 06:12:00,12.0,3.0,30.36,North,350,6.0,-999.0,66,-99.99,,,-99.99,,2013-02-20 12:12:00,
2013-02-20 06:21:00,10.0,3.0,30.36,NNW,340,7.0,-999.0,72,-99.99,,,-99.99,,2013-02-20 12:21:00,
2013-02-20 06:32:00,10.0,3.0,30.36,NNW,340,7.0,-999.0,72,-99.99,,,-99.99,,2013-02-20 12:32:00,
2013-02-20 06:42:00,10.0,3.0,30.37,NNW,340,7.0,-999.0,72,-99.99,,,-99.99,,2013-02-20 12:42:00,
2013-02-20 06:53:00,10.0,3.0,30.37,North,350,6.0,-999.0,72,-99.99,,,-99.99,,2013-02-20 12:53:00,
2013-02-20 07:01:00,10.0,3.0,30.37,North,350,6.0,-999.0,72,-99.99,,,-99.99,,2013-02-20 13:01:00,
2013-02-20 07:11:00,10.0,3.0,30.37,North,350,6.0,-999.0,72,-99.99,,,-99.99,,2013-02-20 13:11:00,
2013-02-20 07:22:00,10.0,1.0,30.37,North,10,5.0,-999.0,66,-99.99,,,-99.99,,2013-02-20 13:22:00,
2013-02-20 07:31:00,10.0,1.0,30.37,North,350,5.0,-999.0,66,-99.99,,,-99.99,,2013-02-20 13:31:00,
2013-02-20 07:42:00,10.0,1.0,30.37,North,350,5.0,-999.0,66,-99.99,,,-99.99,,2013-02-20 13:42:00,
2013-02-20 07:52:00,10.0,1.0,30.37,North,350,5.0,-999.0,66,-99.99,,,-99.99,,2013-02-20 13:52:00,
2013-02-20 08:01:00,10.0,1.0,30.37,North,350,5.0,-999.0,66,-99.99,,,-99.99,,2013-02-20 14:01:00,
2013-02-20 08:11:00,10.0,1.0,30.37,North,350,5.0,-999.0,66,-99.99,,,-99.99,,2013-02-20 14:11:00,
2013-02-20 08:22:00,12.0,3.0,30.39,North,350,6.0,-999.0,66,-99.99,,,-99.99,,2013-02-20 14:22:00,
2013-02-20 08:32:00,14.0,3.0,30.39,NE,50,5.0,-999.0,61,-99.99,,,-99.99,,2013-02-20 14:32:00,
2013-02-20 08:42:00,14.0,1.0,30.40,North,350,6.0,-999.0,56,-99.99,,,-99.99,,2013-02-20 14:42:00,
2013-02-20 08:52:00,14.0,1.0,30.40,North,350,6.0,-999.0,56,-99.99,,,-99.99,,2013-02-20 14:52:00,
2013-02-20 09:01:00,14.0,1.0,30.42,NNW,330,3.0,-999.0,56,-99.99,,,-99.99,,2013-02-20 15:01:00,
2013-02-20 09:11:00,14.0,1.0,30.42,NNW,330,3.0,-999.0,56,-99.99,,,-99.99,,2013-02-20 15:11:00,
2013-02-20 09:22:00,16.0,1.0,30.41,NNE,30,3.0,-999.0,52,-99.99,,,-99.99,,2013-02-20 15:22:00,
2013-02-20 09:32:00,16.0,1.0,30.41,NNE,30,3.0,-999.0,52,-99.99,,,-99.99,,2013-02-20 15:32:00,
2013-02-20 09:41:00,16.0,1.0,30.41,NNE,30,3.0,-999.0,52,-99.99,,,-99.99,,2013-02-20 15:41:00,
2013-02-20 09:52:00,16.0,3.0,30.41,NW,310,5.0,-999.0,56,-99.99,,,-99.99,,2013-02-20 15:52:00,
2013-02-20 10:01:00,16.0,3.0,30.41,NW,310,5.0,-999.0,56,-99.99,,,-99.99,,2013-02-20 16:01:00,
2013-02-20 10:12:00,16.0,3.0,30.41,NW,310,5.0,-999.0,56,-99.99,,,-99.99,,2013-02-20 16:12:00,
2013-02-20 10:21:00,16.0,3.0,30.41,NNW,330,5.0,-999.0,56,-99.99,,,-99.99,,2013-02-20 16:21:00,
2013-02-20 10:32:00,16.0,3.0,30.41,NNW,330,5.0,-999.0,56,-99.99,,,-99.99,,2013-02-20 16:32:00,
2013-02-20 10:42:00,18.0,3.0,30.42,West,280,3.0,-999.0,52,-99.99,,,-99.99,,2013-02-20 16:42:00,
2013-02-20 10:52:00,18.0,3.0,30.43,North,0,0.0,-999.0,52,-99.99,,,-99.99,,2013-02-20 16:52:00,
2013-02-20 11:01:00,18.0,3.0,30.43,North,0,0.0,-999.0,52,-99.99,,,-99.99,,2013-02-20 17:01:00,
2013-02-20 11:11:00,18.0,3.0,30.43,North,0,0.0,-999.0,52,-99.99,,,-99.99,,2013-02-20 17:11:00,
2013-02-20 11:21:00,19.0,5.0,30.43,NE,40,5.0,-999.0,52,-99.99,,,-99.99,,2013-02-20 17:21:00,
2013-02-20 11:32:00,19.0,5.0,30.42,NW,320,8.0,-999.0,52,-99.99,,,-99.99,,2013-02-20 17:32:00,
2013-02-20 11:42:00,19.0,5.0,30.42,North,0,0.0,-999.0,52,-99.99,,,-99.99,,2013-02-20 17:42:00,
2013-02-20 11:52:00,19.0,5.0,30.43,NNW,340,3.0,-999.0,52,-99.99,,,-99.99,,2013-02-20 17:52:00,
2013-02-20 12:02:00,19.0,5.0,30.42,NNW,330,5.0,-999.0,52,-99.99,,,-99.99,,2013-02-20 18:02:00,
2013-02-20 12:11:00,19.0,5.0,30.42,NNW,330,5.0,-999.0,52,-99.99,,,-99.99,,2013-02-20 18:11:00,
2013-02-20 12:21:00,19.0,5.0,30.42,NNW,330,5.0,-999.0,52,-99.99,,,-99.99,,2013-02-20 18:21:00,
2013-02-20 12:32:00,19.0,5.0,30.42,NNW,330,5.0,-999.0,52,-99.99,,,-99.99,,2013-02-20 18:32:00,
2013-02-20 12:42:00,19.0,5.0,30.42,NNW,330,5.0,-999.0,52,-99.99,,,-99.99,,2013-02-20 18:42:00,
2013-02-20 12:52:00,19.0,5.0,30.38,NNE,20,6.0,-999.0,52,-99.99,,,-99.99,,2013-02-20 18:52:00,
2013-02-20 13:01:00,19.0,5.0,30.38,NNE,20,6.0,-999.0,52,-99.99,,,-99.99,,2013-02-20 19:01:00,
2013-02-20 13:11:00,19.0,5.0,30.38,NNE,20,6.0,-999.0,52,-99.99,,,-99.99,,2013-02-20 19:11:00,
2013-02-20 13:21:00,21.0,5.0,30.38,North,0,0.0,-999.0,48,-99.99,,,-99.99,,2013-02-20 19:21:00,
2013-02-20 13:31:00,21.0,5.0,30.38,North,0,0.0,-999.0,48,-99.99,,,-99.99,,2013-02-20 19:31:00,
2013-02-20 13:42:00,21.0,5.0,30.36,ENE,60,5.0,-999.0,48,-99.99,,,-99.99,,2013-02-20 19:42:00,
2013-02-20 13:52:00,21.0,5.0,30.35,NE,50,5.0,-999.0,48,-99.99,,,-99.99,,2013-02-20 19:52:00,
2013-02-20 14:01:00,21.0,5.0,30.35,NE,50,5.0,-999.0,48,-99.99,,,-99.99,,2013-02-20 20:01:00,
2013-02-20 14:11:00,21.0,5.0,30.35,NE,50,5.0,-999.0,48,-99.99,,,-99.99,,2013-02-20 20:11:00,
2013-02-20 14:21:00,21.0,5.0,30.35,NE,50,5.0,-999.0,48,-99.99,,,-99.99,,2013-02-20 20:21:00,
2013-02-20 14:31:00,21.0,5.0,30.36,North,0,0.0,-999.0,48,-99.99,,,-99.99,,2013-02-20 20:31:00,
2013-02-20 14:41:00,21.0,5.0,30.36,North,0,0.0,-999.0,48,-99.99,,,-99.99,,2013-02-20 20:41:00,
2013-02-20 14:52:00,21.0,5.0,30.35,NNE,30,3.0,-999.0,48,-99.99,,,-99.99,,2013-02-20 20:52:00,
2013-02-20 15:01:00,23.0,7.0,30.35,ENE,60,3.0,-999.0,49,-99.99,,,-99.99,,2013-02-20 21:01:00,
2013-02-20 15:11:00,23.0,7.0,30.35,ENE,60,3.0,-999.0,49,-99.99,,,-99.99,,2013-02-20 21:11:00,
2013-02-20 15:21:00,23.0,7.0,30.34,NNE,20,5.0,-999.0,49,-99.99,,,-99.99,,2013-02-20 21:21:00,
2013-02-20 15:31:00,23.0,7.0,30.34,ENE,70,6.0,-999.0,49,-99.99,,,-99.99,,2013-02-20 21:31:00,
2013-02-20 15:41:00,23.0,7.0,30.33,NNE,30,5.0,-999.0,49,-99.99,,,-99.99,,2013-02-20 21:41:00,
2013-02-20 15:52:00,23.0,7.0,30.33,NNE,30,6.0,-999.0,49,-99.99,,,-99.99,,2013-02-20 21:52:00,
2013-02-20 16:01:00,23.0,7.0,30.33,NNE,30,6.0,-999.0,49,-99.99,,,-99.99,,2013-02-20 22:01:00,
2013-02-20 16:11:00,23.0,7.0,30.33,NNE,30,6.0,-999.0,49,-99.99,,,-99.99,,2013-02-20 22:11:00,
2013-02-20 16:21:00,23.0,7.0,30.33,NNE,30,6.0,-999.0,49,-99.99,,,-99.99,,2013-02-20 22:21:00,
2013-02-20 16:31:00,23.0,9.0,30.33,NE,50,5.0,-999.0,53,-99.99,,,-99.99,,2013-02-20 22:31:00,
2013-02-20 16:43:00,23.0,9.0,30.33,NE,40,5.0,-999.0,53,-99.99,,,-99.99,,2013-02-20 22:43:00,
2013-02-20 16:52:00,23.0,9.0,30.33,NE,40,5.0,-999.0,53,-99.99,,,-99.99,,2013-02-20 22:52:00,
2013-02-20 17:01:00,23.0,9.0,30.33,NE,40,5.0,-999.0,53,-99.99,,,-99.99,,2013-02-20 23:01:00,
2013-02-20 17:12:00,23.0,9.0,30.33,NE,40,5.0,-999.0,53,-99.99,,,-99.99,,2013-02-20 23:12:00,
2013-02-20 17:22:00,23.0,9.0,30.31,NE,50,6.0,-999.0,53,-99.99,,,-99.99,,2013-02-20 23:22:00,
2013-02-20 17:32:00,23.0,9.0,30.31,NE,50,6.0,-999.0,53,-99.99,,,-99.99,,2013-02-20 23:32:00,
2013-02-20 17:42:00,23.0,9.0,30.31,NE,50,5.0,-999.0,53,-99.99,,,-99.99,,2013-02-20 23:42:00,
2013-02-20 17:52:00,23.0,9.0,30.30,NE,50,5.0,-999.0,53,-99.99,,,-99.99,,2013-02-20 23:52:00,
2013-02-20 18:02:00,23.0,9.0,30.30,NE,50,5.0,-999.0,53,-99.99,,,-99.99,,2013-02-21 00:02:00,
2013-02-20 18:11:00,23.0,9.0,30.30,NE,50,5.0,-999.0,53,-99.99,,,-99.99,,2013-02-21 00:11:00,
2013-02-20 18:21:00,23.0,9.0,30.30,NE,50,5.0,-999.0,53,-99.99,,,-99.99,,2013-02-21 00:21:00,
2013-02-20 18:32:00,23.0,9.0,30.30,NE,50,6.0,-999.0,53,-99.99,,,-99.99,,2013-02-21 00:32:00,
2013-02-20 18:42:00,21.0,9.0,30.29,ENE,60,6.0,-999.0,57,-99.99,,,-99.99,,2013-02-21 00:42:00,
2013-02-20 18:52:00,21.0,9.0,30.29,NE,50,6.0,-999.0,57,-99.99,,,-99.99,,2013-02-21 00:52:00,
2013-02-20 19:01:00,21.0,9.0,30.30,NE,50,3.0,-999.0,57,-99.99,,,-99.99,,2013-02-21 01:01:00,
2013-02-20 19:11:00,21.0,9.0,30.30,NE,50,3.0,-999.0,57,-99.99,,,-99.99,,2013-02-21 01:11:00,
2013-02-20 19:21:00,21.0,10.0,30.30,NE,50,3.0,-999.0,62,-99.99,,,-99.99,,2013-02-21 01:21:00,
2013-02-20 19:32:00,21.0,10.0,30.30,NE,50,3.0,-999.0,62,-99.99,,,-99.99,,2013-02-21 01:32:00,
2013-02-20 19:41:00,21.0,10.0,30.30,NE,50,3.0,-999.0,62,-99.99,,,-99.99,,2013-02-21 01:41:00,
2013-02-20 19:52:00,21.0,10.0,30.30,ENE,70,5.0,-999.0,62,-99.99,,,-99.99,,2013-02-21 01:52:00,
2013-02-20 20:01:00,21.0,10.0,30.30,ENE,60,3.0,-999.0,62,-99.99,,,-99.99,,2013-02-21 02:01:00,
2013-02-20 20:11:00,21.0,10.0,30.30,ENE,60,3.0,-999.0,62,-99.99,,,-99.99,,2013-02-21 02:11:00,
2013-02-20 20:21:00,21.0,10.0,30.30,North,0,0.0,-999.0,62,-99.99,,,-99.99,,2013-02-21 02:21:00,
2013-02-20 20:32:00,21.0,10.0,30.30,North,0,0.0,-999.0,62,-99.99,,,-99.99,,2013-02-21 02:32:00,
2013-02-20 20:42:00,21.0,10.0,30.30,North,0,0.0,-999.0,62,-99.99,,,-99.99,,2013-02-21 02:42:00,
2013-02-20 20:52:00,21.0,10.0,30.30,North,0,0.0,-999.0,62,-99.99,,,-99.99,,2013-02-21 02:52:00,
2013-02-20 21:01:00,21.0,12.0,30.32,North,0,0.0,-999.0,67,-99.99,,,-99.99,,2013-02-21 03:01:00,
2013-02-20 21:12:00,21.0,12.0,30.32,North,0,0.0,-999.0,67,-99.99,,,-99.99,,2013-02-21 03:12:00,
2013-02-20 21:21:00,21.0,12.0,30.32,North,0,0.0,-999.0,67,-99.99,,,-99.99,,2013-02-21 03:21:00,
2013-02-20 21:32:00,21.0,12.0,30.32,North,0,0.0,-999.0,67,-99.99,,,-99.99,,2013-02-21 03:32:00,
2013-02-20 21:41:00,19.0,12.0,30.33,North,0,0.0,-999.0,73,-99.99,,,-99.99,,2013-02-21 03:41:00,
2013-02-20 21:52:00,21.0,12.0,30.31,NE,50,3.0,-999.0,67,-99.99,,,-99.99,,2013-02-21 03:52:00,
2013-02-20 22:01:00,21.0,12.0,30.32,NE,40,3.0,-999.0,67,-99.99,,,-99.99,,2013-02-21 04:01:00,
2013-02-20 22:11:00,21.0,12.0,30.32,NE,40,3.0,-999.0,67,-99.99,,,-99.99,,2013-02-21 04:11:00,
2013-02-20 22:21:00,21.0,12.0,30.31,ENE,60,3.0,-999.0,67,-99.99,,,-99.99,,2013-02-21 04:21:00,
2013-02-20 22:32:00,21.0,12.0,30.31,ENE,70,6.0,-999.0,67,-99.99,,,-99.99,,2013-02-21 04:32:00,
2013-02-20 22:42:00,21.0,12.0,30.31,ENE,70,6.0,-999.0,67,-99.99,,,-99.99,,2013-02-21 04:42:00,
2013-02-20 22:52:00,21.0,12.0,30.30,ENE,60,6.0,-999.0,67,-99.99,,,-99.99,,2013-02-21 04:52:00,
2013-02-20 23:02:00,21.0,12.0,30.31,East,80,3.0,-999.0,67,-99.99,,,-99.99,,2013-02-21 05:02:00,
2013-02-20 23:12:00,21.0,12.0,30.31,East,80,3.0,-999.0,67,-99.99,,,-99.99,,2013-02-21 05:12:00,
2013-02-20 23:22:00,21.0,12.0,30.32,North,0,0.0,-999.0,67,-99.99,,,-99.99,,2013-02-21 05:22:00,
2013-02-20 23:34:00,21.0,12.0,30.32,ENE,70,5.0,-999.0,67,-99.99,,,-99.99,,2013-02-21 05:34:00,
2013-02-20 23:43:00,21.0,12.0,30.32,ENE,70,5.0,-999.0,67,-99.99,,,-99.99,,2013-02-21 05:43:00,
2013-02-20 23:59:00,21.0,10.0,30.31,ENE,60,3.0,-999.0,62,-99.99,,,-99.99,,2013-02-21 05:59:00,